Location: Ellerstadt
(49.4644°N, 8.2615°E)
Time: 19:26:13
(UTC+00:00)

Vanguard 1 - Pass Details

Date: 14 June 2021
Orbit: 651 x 3831 km, 34.2° (Epoch: 29 July)

Event Time Altitude Azimuth Distance (km) Brightness Sun altitude
Rises 22:27:56 0° 235° (SW) 7,849 14.5 -16.0°
Reaches altitude 10° 22:34:09 10° 230° (SW) 6,583 14.0 -16.3°
Maximum altitude 22:51:25 39° 171° (S) 3,486 12.3 -16.8°
Drops below altitude 10° 23:02:06 10° 108° (ESE) 4,146 13.0 -17.0°
Sets 23:05:00 0° 100° (E) 4,785 13.4 -17.1°
